{"data":{"norad_id":66270,"epoch":"2026-05-24T14:53:16.695168Z","epoch_age_seconds":108584,"freshness":"FRESH","line1":"1 66270U 25247F   26144.62033212  .00026442  00000+0  79095-3 0  9997","line2":"2 66270  53.1593 197.7189 0001033  79.7884 280.3235 15.34400483 32720","mean_motion":15.34400483,"eccentricity":0.0001033,"inclination_deg":53.1593,"raan_deg":197.7189,"arg_perigee_deg":79.7884,"mean_anomaly_deg":280.3235,"bstar":0.00079095,"rev_number":3272,"period_min":93.847728539851,"perigee_km":461.99514598118,"apogee_km":463.40846327821,"semimajor_km":6840.8388046297,"source":"CELESTRAK","updated_at":"2026-05-25T13:38:21.160541Z"}}